Date,TemperatureHighF,TemperatureAvgF,TemperatureLowF,DewpointHighF,DewpointAvgF,DewpointLowF,HumidityHigh,HumidityAvg,HumidityLow,PressureMaxIn,PressureMinIn,WindSpeedMaxMPH,WindSpeedAvgMPH,GustSpeedMaxMPH,PrecipitationSumIn
2013-1-1,22.6,18.3,14.0,20.1,15.1,10.4,91,87,83,30.37,30.23,20,7,22,0.00
2013-1-4,41.8,35.7,32.5,33.8,28.8,24.4,80,76,71,30.30,30.15,7,2,19,0.00
2013-1-5,43.5,31.8,21.9,34.5,25.5,17.8,86,77,60,30.45,30.11,7,1,22,0.00
2013-1-6,41.2,33.8,27.8,23.1,21.9,21.1,77,62,45,30.41,30.35,8,1,13,0.00
2013-1-7,50.0,38.1,29.0,29.8,25.5,21.5,74,61,41,30.35,30.09,16,5,29,0.00
2013-1-8,55.0,43.6,34.8,36.5,32.4,28.0,81,66,44,30.23,30.00,16,4,34,0.00
2013-1-9,55.1,42.0,29.9,36.9,32.3,26.7,91,70,46,30.45,30.23,6,0,13,0.00
2013-1-10,49.9,44.0,38.7,49.9,40.3,29.9,100,88,57,30.38,29.75,15,6,34,0.39
2013-1-11,59.2,54.5,48.9,50.5,48.2,37.9,100,81,49,29.77,29.59,20,7,34,0.00
2013-1-12,56.9,30.0,21.6,36.9,18.7,12.1,81,63,32,30.15,29.75,25,7,34,0.00
2013-1-13,26.9,18.5,11.8,12.5,8.7,5.7,77,66,48,30.45,30.12,13,3,24,0.00
2013-1-14,31.7,19.5,9.9,12.9,9.3,6.3,88,66,36,30.61,30.45,15,2,18,0.00
2013-1-15,33.5,21.8,13.6,14.1,11.2,8.7,87,66,37,30.49,30.26,7,1,12,0.00
2013-1-16,46.6,32.1,19.4,30.4,21.3,12.0,77,65,48,30.26,30.10,9,2,18,0.00
2013-1-17,48.0,36.4,28.0,31.4,28.7,26.3,94,75,49,30.54,30.25,16,2,24,0.00
2013-1-18,56.6,44.3,33.9,33.6,30.9,27.6,79,61,40,30.46,30.06,16,7,36,0.00
2013-1-19,61.0,48.8,41.9,34.5,32.0,28.9,71,54,31,30.28,30.01,14,4,29,0.00
2013-1-20,42.3,29.8,20.5,29.9,13.4,9.0,68,51,37,30.46,30.28,26,9,29,0.00
2013-1-21,21.7,18.1,14.0,11.8,7.0,0.7,83,63,41,30.53,30.45,20,4,28,0.00
2013-1-22,30.3,21.0,13.7,12.2,8.3,4.4,70,58,44,30.51,30.35,13,4,18,0.00
2013-1-23,47.0,30.6,14.8,26.0,18.1,9.9,81,61,42,30.48,30.24,23,5,29,0.00
2013-1-24,26.8,21.0,9.7,15.9,7.6,1.2,68,56,43,30.57,30.25,22,8,29,0.00
2013-1-25,47.2,33.2,21.2,23.9,18.2,12.1,75,55,37,30.31,30.23,10,1,16,0.00
2013-1-26,56.8,41.6,29.4,28.9,26.0,22.2,76,56,32,30.34,30.12,15,4,22,0.00
2013-1-27,60.7,50.4,40.6,56.4,45.2,28.1,90,83,51,30.13,29.76,20,8,36,0.12
2013-1-28,75.0,66.0,59.0,62.5,58.9,56.2,91,79,56,29.85,29.63,16,6,42,0.00
2013-1-29,67.6,48.6,35.9,62.8,46.4,34.6,97,93,80,29.65,29.42,21,6,37,1.53
2013-1-30,35.9,27.2,21.3,34.8,22.9,16.1,97,84,71,30.04,29.51,21,6,40,0.02
2013-1-31,24.5,17.7,7.8,20.1,10.1,1.2,86,72,55,30.58,30.02,15,4,32,0.00
2013-2-1,26.1,17.1,6.1,16.2,8.0,0.3,80,68,56,30.57,30.24,12,3,18,0.00
2013-2-2,48.9,36.9,26.0,35.4,27.1,16.0,75,67,59,30.30,30.14,8,2,18,0.00
2013-2-3,49.3,40.3,31.8,32.7,26.2,18.5,79,59,36,30.33,29.88,13,3,22,0.00
2013-2-4,49.4,39.2,24.8,32.5,28.5,22.3,91,67,50,30.03,29.81,23,5,29,0.00
2013-2-5,58.6,40.0,23.1,35.5,28.8,21.1,93,68,39,30.14,29.95,17,3,28,0.00
2013-2-6,61.5,47.7,33.6,43.5,35.3,27.1,80,63,46,30.15,29.90,20,8,29,0.01
2013-2-7,50.3,43.6,32.3,47.4,40.1,28.3,97,88,73,30.23,29.87,22,5,34,1.01
2013-2-8,43.8,34.1,29.8,32.5,28.4,26.2,90,80,60,30.39,30.23,18,5,21,0.00
2013-2-9,48.4,36.8,29.3,37.9,31.8,26.9,92,83,60,30.29,29.79,18,10,30,0.04
2013-2-10,51.2,44.8,37.1,46.9,35.9,25.0,97,73,50,29.94,29.51,21,11,37,0.05
2013-2-11,47.6,38.2,30.7,28.3,25.2,22.7,77,60,43,30.22,29.94,10,3,28,0.00
2013-2-12,42.3,34.6,25.0,29.1,25.1,20.7,86,69,49,30.22,30.01,6,0,10,0.00
2013-2-13,56.6,41.7,27.8,29.8,26.6,23.9,85,58,32,30.01,29.84,10,2,18,0.00
2013-2-14,49.6,42.1,34.5,33.0,28.6,23.4,76,60,40,30.21,29.87,9,3,22,0.00
2013-2-15,37.4,30.1,20.6,27.2,17.1,8.4,91,60,34,30.43,30.21,20,5,29,0.00
2013-2-16,34.2,28.6,19.3,24.1,21.5,17.9,94,76,56,30.39,30.13,10,3,18,0.02
2013-2-17,54.8,35.4,27.6,34.8,25.2,22.0,80,67,46,30.13,29.91,17,4,22,0.00
2013-2-19,31.9,24.1,22.5,13.0,6.7,6.1,50,47,45,30.41,30.16,13,5,18,0.00
2013-2-20,25.4,21.5,16.3,15.4,8.9,2.8,71,58,46,30.45,30.24,13,6,20,0.00
2013-2-21,26.9,23.9,20.6,25.7,20.8,14.6,95,88,70,30.25,29.80,18,7,36,0.00
2013-2-22,29.9,23.8,17.2,23.6,19.7,13.7,95,85,67,30.13,29.83,10,3,20,0.02
2013-2-23,37.1,23.1,9.6,22.0,16.2,7.2,93,76,52,30.14,30.01,7,1,16,0.12
2013-2-24,48.6,34.4,20.7,30.1,24.6,18.0,90,69,47,30.08,29.93,14,4,21,0.02
2013-2-25,37.9,33.8,30.7,33.4,28.3,24.8,96,80,67,29.99,29.69,28,10,37,0.02
2013-2-26,33.6,32.3,30.5,32.4,31.2,29.3,97,96,94,29.89,29.59,28,12,42,0.07
2013-2-27,35.9,31.7,28.6,29.3,27.8,25.5,96,86,71,30.09,29.87,10,3,21,0.04
2013-2-28,32.9,30.9,28.4,28.3,26.0,24.1,85,82,77,30.24,30.08,14,5,22,0.00
2013-3-10,42.2,39.3,37.6,36.8,24.9,21.9,96,58,45,30.36,29.67,3,0,14,0.00
2013-3-13,37.4,36.3,35.5,26.0,24.8,23.2,67,63,57,30.34,30.32,3,1,8,0.00
2013-3-14,72.6,47.9,35.5,43.3,32.1,25.8,68,56,33,30.32,30.06,12,4,24,0.00
2013-3-15,66.1,63.6,61.6,47.5,47.2,46.9,59,55,51,29.68,29.63,5,1,14,0.00
2013-3-16,63.0,45.8,39.7,47.2,37.5,32.6,86,73,54,30.01,29.66,30,14,37,0.00
2013-3-17,34.3,33.8,33.2,32.8,31.9,30.9,95,93,90,29.99,29.79,15,6,28,0.13
2013-3-18,54.0,41.7,34.1,37.2,29.7,19.3,97,68,30,30.09,29.78,12,4,26,0.01
2013-3-19,38.7,33.8,28.2,36.3,25.9,16.1,97,74,43,30.30,30.07,7,0,10,0.09
2013-3-20,39.4,31.6,24.8,33.7,15.9,7.8,100,56,31,30.44,30.17,23,6,37,0.00
2013-3-21,29.0,26.9,23.7,27.5,19.3,11.7,94,74,53,30.17,29.95,14,4,22,0.00
2013-3-22,33.3,31.3,29.1,31.1,29.2,27.2,95,92,85,30.06,29.99,10,4,15,0.00
2013-3-23,38.4,33.9,32.4,32.2,30.5,28.4,97,88,67,30.07,29.89,20,8,30,0.03
2013-3-24,32.6,28.3,22.6,31.6,26.4,18.2,97,93,83,30.13,29.84,25,10,37,0.01
2013-3-25,33.9,27.4,20.8,27.4,22.9,17.0,91,83,72,30.39,30.11,10,4,24,0.00
2013-3-26,39.4,28.9,20.4,23.8,21.3,18.2,92,74,50,30.47,30.35,8,1,13,0.20
2013-3-27,50.7,37.4,23.8,35.1,27.7,20.5,88,69,48,30.37,30.23,16,4,26,0.02
2013-3-28,66.8,51.8,36.8,42.9,37.7,32.1,83,60,40,30.25,30.12,10,2,18,0.00
2013-3-29,69.2,55.8,42.5,47.3,41.3,38.3,86,61,34,30.20,30.08,14,4,22,0.00
2013-3-30,67.1,57.5,51.3,56.5,51.3,46.1,95,80,64,30.08,29.84,13,3,28,0.05
2013-3-31,65.3,55.9,44.9,53.3,42.1,31.1,96,64,33,29.97,29.89,22,2,29,0.00
2013-4-1,51.0,41.3,33.7,34.6,22.1,12.4,81,48,29,30.31,29.97,28,11,34,0.00
2013-4-2,51.2,39.7,30.2,24.2,21.1,18.0,65,48,32,30.37,30.27,15,3,20,0.00
2013-4-3,50.6,42.1,32.7,26.9,24.0,19.9,70,50,35,30.39,30.25,20,4,28,0.00
2013-4-4,63.6,50.8,37.7,32.7,27.3,21.0,64,42,24,30.26,30.07,16,2,20,0.00
2013-4-5,70.4,55.1,39.0,44.8,38.7,32.1,81,56,36,30.17,29.85,16,4,29,0.00
2013-4-6,77.2,64.2,56.2,52.5,45.6,39.6,64,52,30,29.86,29.63,16,7,42,0.00
2013-4-7,72.5,59.8,45.1,57.2,48.4,40.9,92,68,37,29.84,29.62,23,4,38,0.37
2013-4-8,73.8,65.1,56.1,63.4,59.9,53.4,100,84,69,29.69,29.64,20,4,28,0.02
2013-4-9,72.1,67.7,54.9,64.5,61.4,53.2,94,81,74,29.74,29.60,17,7,27,0.38
2013-4-10,54.9,42.2,36.8,52.4,41.0,35.8,97,96,93,29.92,29.68,18,4,28,0.97
2013-4-11,42.0,36.5,33.3,35.7,30.2,26.7,97,79,62,29.83,29.75,12,4,21,0.00
2013-4-12,53.3,40.4,31.1,34.8,30.6,27.0,88,69,46,30.06,29.81,10,3,21,0.00
2013-4-13,65.5,50.8,32.4,47.7,39.4,30.1,93,67,48,30.08,29.72,20,4,32,0.00
2013-4-14,74.2,63.2,55.0,57.9,49.2,36.9,79,61,47,29.71,29.46,26,8,45,0.06
2013-4-15,57.1,49.1,44.1,44.7,37.2,31.8,91,65,45,30.01,29.72,24,7,28,0.19
2013-4-16,47.2,44.5,42.1,38.7,34.7,31.7,77,68,58,30.15,30.00,22,11,34,0.00
2013-4-17,52.8,48.8,45.5,52.8,47.3,38.7,100,95,77,30.09,29.64,16,5,24,0.51
2013-4-18,47.6,39.5,36.5,47.6,36.0,28.5,100,88,70,29.97,29.56,16,7,26,0.51
2013-4-19,52.7,42.1,31.8,29.6,26.8,22.1,82,57,31,30.13,29.94,14,5,24,0.00
2013-4-20,58.2,46.1,30.1,37.2,30.5,24.8,82,56,40,30.27,30.13,14,4,24,0.00
2013-4-21,67.9,57.4,47.3,46.5,41.2,34.1,72,56,38,30.22,30.09,17,6,28,0.00
2013-4-22,66.3,56.5,47.9,50.5,45.0,40.7,90,66,47,30.13,29.89,20,5,28,0.02
2013-4-23,49.2,36.5,33.7,45.9,34.5,32.3,95,92,82,30.22,30.00,26,12,37,0.57
2013-4-24,55.3,41.9,29.1,34.5,30.4,25.9,96,67,38,30.31,30.19,10,2,20,0.02
2013-4-25,69.9,53.6,36.0,42.7,37.6,32.5,88,58,32,30.33,30.14,9,2,24,0.00
2013-4-26,56.0,51.6,48.2,48.9,46.6,40.8,97,84,57,30.23,30.14,25,5,40,0.57
2013-4-27,55.3,50.4,47.4,50.6,48.3,46.6,100,93,83,30.20,30.01,12,3,16,0.50
2013-4-28,75.9,59.4,43.0,58.0,51.5,42.2,100,78,45,30.01,29.77,10,2,21,0.00
2013-4-29,85.2,71.2,57.5,65.9,59.8,52.9,87,69,49,29.79,29.59,18,5,32,0.00
2013-4-30,84.5,74.6,64.3,58.8,55.9,52.3,73,54,38,29.78,29.62,21,7,43,0.00
2013-5-1,84.2,67.3,42.6,63.6,54.3,39.3,89,64,44,30.15,29.77,32,8,42,0.06
2013-5-2,42.6,37.0,32.6,39.4,35.6,31.9,100,94,89,30.41,30.15,33,15,44,0.61
2013-5-3,39.4,36.7,33.9,36.6,34.9,33.6,100,93,81,30.35,29.94,23,7,34,0.46
2013-5-4,48.9,41.3,32.8,43.4,38.4,31.8,100,90,75,30.06,29.86,18,5,28,0.17
2013-5-5,56.3,49.0,44.6,50.9,47.4,43.4,100,94,82,30.13,30.03,14,3,18,0.01
2013-5-6,68.9,56.9,50.1,57.5,52.0,48.5,95,85,62,30.12,30.02,15,3,18,0.00
2013-5-7,77.9,62.7,46.7,58.0,51.5,46.7,100,72,36,30.08,29.95,9,1,16,0.00
2013-5-8,75.7,64.7,55.4,61.2,56.9,50.5,96,77,58,29.99,29.86,16,3,26,0.06
2013-5-9,77.5,65.4,58.7,64.4,59.6,57.1,100,83,53,29.91,29.81,9,1,18,0.27
2013-5-10,68.1,58.7,50.8,57.4,52.5,48.0,97,81,51,30.04,29.88,17,4,30,0.00
2013-5-11,66.9,57.0,48.0,50.9,38.2,27.5,96,56,25,30.24,30.04,32,7,40,0.00
2013-5-12,68.4,54.0,37.2,43.8,33.4,27.5,84,50,25,30.29,30.13,13,1,18,0.00
2013-5-13,79.3,63.7,45.6,57.9,50.1,42.4,89,64,42,30.16,29.92,13,3,21,0.00
2013-5-14,94.2,78.9,66.0,59.7,54.0,48.5,74,46,22,29.91,29.75,15,5,36,0.00
2013-5-15,87.6,76.5,67.1,69.3,61.8,55.2,85,61,45,29.85,29.76,9,4,24,0.00
2013-5-16,80.8,70.7,61.2,65.9,62.5,59.0,94,77,56,29.84,29.75,10,2,20,0.00
2013-5-17,79.2,68.0,59.3,64.6,61.8,58.2,100,82,58,29.90,29.81,7,1,15,0.00
2013-5-18,86.3,74.1,60.6,72.7,67.0,59.2,97,80,59,29.89,29.68,13,4,29,0.00
2013-5-19,84.2,70.9,62.6,72.7,65.4,59.8,100,84,64,29.80,29.52,22,4,34,1.07
2013-5-20,80.3,68.7,61.3,70.1,64.1,59.5,95,86,68,29.72,29.57,13,3,28,0.01
2013-5-21,76.9,66.9,56.6,63.8,54.4,51.0,89,65,46,29.74,29.64,7,1,18,0.00
2013-5-22,68.4,62.3,54.3,54.7,52.4,50.1,87,71,59,29.92,29.70,7,1,13,0.00
2013-5-23,67.6,60.1,52.1,55.7,52.5,49.0,90,77,63,30.20,29.93,20,3,34,0.00
2013-5-24,74.0,62.5,47.9,55.8,51.1,46.9,100,69,46,30.30,30.11,13,4,28,0.00
2013-5-25,84.4,72.2,61.7,67.4,60.5,48.5,83,67,54,30.14,29.97,13,3,26,0.00
2013-5-26,84.9,76.3,68.1,71.3,68.1,65.2,91,77,62,30.01,29.84,14,4,32,0.00
2013-5-27,81.8,72.1,62.9,72.8,66.5,62.0,100,83,68,29.89,29.63,17,6,30,2.05
2013-5-28,79.8,75.0,72.0,73.4,69.6,67.2,92,83,75,29.76,29.60,12,4,26,0.04
2013-5-29,81.2,75.3,65.5,69.7,67.7,62.3,91,78,66,29.77,29.58,18,7,37,0.11
2013-5-30,73.9,65.2,62.3,66.7,62.7,61.0,100,92,75,29.70,29.57,18,4,29,1.65
2013-5-31,75.5,68.0,61.1,69.1,65.4,61.1,100,91,80,29.72,29.67,8,2,20,1.65
2013-6-1,71.3,66.9,60.7,59.6,56.6,53.5,80,70,55,29.96,29.77,6,1,15,1.65
2013-6-2,65.1,58.5,49.8,54.8,51.0,47.8,93,77,58,30.07,29.95,15,2,22,0.00
2013-6-3,75.5,61.5,44.6,59.5,53.1,44.0,100,76,56,30.07,29.87,10,3,21,0.00
2013-6-4,77.5,67.2,62.8,67.8,61.9,57.7,94,83,69,29.94,29.81,10,3,24,0.15
2013-6-5,68.5,64.5,62.2,66.4,62.7,60.5,100,94,87,29.96,29.88,14,2,22,0.74
2013-6-6,75.6,67.0,58.6,62.8,57.3,53.0,97,73,48,29.94,29.88,17,2,24,0.00
2013-6-7,75.4,64.7,54.9,58.3,54.3,51.2,96,72,44,29.98,29.88,13,2,20,0.00
2013-6-8,81.7,68.7,53.1,63.9,58.4,51.5,95,72,52,29.92,29.73,15,4,32,0.07
2013-6-9,83.3,71.2,62.1,64.9,60.7,54.0,100,73,37,29.82,29.72,10,2,15,0.48
2013-6-10,90.9,74.8,60.9,65.7,60.7,56.4,89,65,32,29.86,29.77,10,1,12,0.00
2013-6-11,95.6,82.6,71.7,72.1,68.1,64.4,93,64,38,29.83,29.73,13,4,27,0.00
2013-6-12,95.6,85.5,76.9,73.5,71.4,63.0,81,64,46,29.86,29.69,16,4,34,0.00
2013-6-13,89.1,74.7,63.4,65.0,61.2,55.9,84,64,43,30.00,29.86,17,4,28,0.00
2013-6-14,90.6,77.0,65.6,76.1,69.0,63.0,93,78,59,29.98,29.82,13,3,22,0.00
2013-6-15,93.5,76.6,66.7,76.6,70.8,63.7,100,84,50,29.96,29.82,25,3,50,1.59
2013-6-16,84.1,74.1,65.6,75.3,71.0,65.6,100,91,73,29.93,29.85,9,1,15,0.00
2013-6-17,82.7,73.2,65.9,73.5,68.6,64.7,96,86,71,29.96,29.85,7,1,16,0.04
2013-6-18,88.1,73.6,63.8,72.1,66.5,61.4,100,81,47,29.98,29.92,14,2,20,0.01
2013-6-19,88.2,76.1,63.1,72.0,67.6,63.1,100,77,49,30.00,29.90,10,2,20,0.01
2013-6-20,90.2,79.7,69.3,76.0,71.7,67.0,94,77,61,29.96,29.84,17,5,32,0.00
2013-6-21,92.6,83.4,76.4,76.8,73.4,70.5,87,73,55,29.92,29.84,15,6,32,0.00
2013-6-22,93.5,83.2,74.7,75.6,71.9,69.2,84,70,51,29.93,29.78,13,5,28,0.00
2013-6-23,91.7,82.2,74.0,76.7,72.6,70.3,89,73,55,29.89,29.72,20,4,40,0.00
2013-6-24,91.2,83.3,76.9,74.5,71.0,68.0,80,67,49,29.89,29.72,16,6,32,0.00
2013-6-25,89.5,81.4,74.8,74.9,72.0,69.5,94,74,58,29.83,29.66,17,5,32,0.07
2013-6-26,98.2,86.3,75.9,77.8,70.1,60.8,87,62,30,29.81,29.66,14,2,20,0.00
2013-6-27,91.2,79.3,70.9,79.6,70.5,66.3,90,75,60,29.94,29.76,21,2,37,0.09
2013-6-28,87.2,77.3,68.9,73.5,66.2,58.8,100,73,41,29.89,29.82,17,2,30,0.01
2013-6-29,83.7,74.6,64.3,63.5,59.5,55.5,81,61,39,29.83,29.76,24,5,40,0.00
2013-6-30,78.9,71.3,62.1,61.1,58.3,56.0,83,65,49,30.00,29.83,21,10,30,0.00
2013-7-1,81.1,72.1,59.9,59.3,54.7,48.7,85,57,35,30.07,30.00,26,8,34,0.00
2013-7-2,83.5,72.6,59.0,58.8,54.5,49.9,88,56,34,30.09,30.01,16,2,24,0.00
2013-7-3,88.7,71.0,59.7,61.2,57.6,52.6,91,67,30,30.04,29.94,22,1,29,0.10
2013-7-4,88.2,73.4,58.6,63.2,58.3,55.0,89,63,35,30.01,29.91,10,2,16,0.00
2013-7-5,91.4,79.0,63.8,66.6,62.5,59.2,86,59,38,29.96,29.84,10,3,21,0.00
2013-7-6,89.2,76.3,68.8,68.5,64.6,61.7,84,68,49,29.95,29.85,15,3,24,0.08
2013-7-7,92.4,82.3,72.7,71.7,68.2,65.6,82,63,47,29.93,29.85,13,4,24,0.03
2013-7-8,96.6,84.1,76.5,73.8,69.3,66.5,73,62,42,29.97,29.90,9,2,21,0.00
2013-7-9,101.0,88.4,78.7,77.2,72.9,69.7,77,62,42,29.94,29.77,13,3,24,0.00
2013-7-10,93.1,84.9,77.8,74.0,68.3,58.8,73,59,32,29.96,29.82,17,4,26,0.00
2013-7-11,89.9,78.7,69.1,64.4,61.6,57.8,77,58,36,30.04,29.92,12,2,20,0.00
2013-7-12,91.3,78.4,68.3,69.2,63.8,60.9,80,62,48,30.00,29.91,10,3,22,0.00
2013-7-13,93.4,80.8,70.7,70.9,64.7,58.9,68,59,46,29.99,29.90,9,3,21,0.00
2013-7-14,89.5,77.9,66.6,64.6,62.5,57.9,85,61,36,30.06,29.94,10,2,21,0.00
2013-7-15,91.6,79.5,69.5,71.1,68.0,62.7,92,69,49,30.13,30.04,7,1,20,0.00
2013-7-16,93.7,83.4,71.0,73.1,70.0,66.7,93,66,42,30.20,30.12,8,1,14,0.00
2013-7-17,93.6,84.0,73.3,74.1,71.8,69.7,90,68,49,30.25,30.12,13,1,15,0.00
2013-7-18,98.0,85.8,71.7,73.3,69.9,66.5,93,62,38,30.15,29.93,6,1,16,0.00
2013-7-19,100.5,88.2,74.9,71.4,68.0,65.9,77,54,34,29.94,29.78,6,1,18,0.00
2013-7-20,90.2,78.9,72.3,74.6,71.4,68.7,96,79,52,29.87,29.79,17,1,24,0.23
2013-7-21,90.1,80.3,76.5,74.2,72.0,69.5,90,77,53,29.86,29.75,9,1,13,0.01
2013-7-22,96.0,82.2,70.4,76.6,71.1,67.5,96,71,41,29.81,29.72,9,1,18,0.00
2013-7-23,88.0,79.7,72.5,74.8,70.8,65.3,93,75,57,29.87,29.74,17,3,27,0.00
2013-7-24,86.7,76.5,67.6,64.9,60.9,56.9,79,60,42,30.00,29.87,17,3,22,0.00
2013-7-25,87.0,74.8,66.0,70.7,65.4,61.1,93,75,47,30.05,29.96,13,1,18,0.03
2013-7-26,86.1,76.0,69.4,71.4,66.0,54.5,93,73,45,30.02,29.93,18,4,29,0.03
2013-7-27,78.9,68.5,57.8,57.7,54.0,49.8,90,62,40,30.08,29.95,16,4,22,0.00
2013-7-28,76.6,67.6,58.4,58.0,55.1,49.1,90,66,44,30.04,29.99,9,0,13,0.00
2013-7-29,71.3,66.6,61.1,71.3,64.0,57.2,100,92,73,30.05,29.93,7,1,15,0.75
2013-7-30,82.4,75.9,71.2,76.0,72.9,71.2,100,91,76,30.01,29.93,14,3,18,0.51
2013-7-31,85.9,77.0,71.4,72.0,68.9,65.8,95,77,54,30.08,29.99,13,3,21,0.00
2013-8-1,91.6,78.4,65.5,71.3,67.6,64.6,100,72,45,30.06,29.91,9,1,15,0.00
2013-8-2,89.0,77.2,66.5,76.5,71.7,65.6,100,84,64,29.95,29.79,8,1,21,0.49
2013-8-3,85.1,78.3,72.7,74.4,72.2,70.7,94,82,66,30.08,29.84,12,2,18,0.05
2013-8-4,76.7,71.5,67.3,72.3,68.5,63.3,100,91,75,30.10,29.98,6,1,13,0.50
2013-8-5,88.2,76.9,70.1,76.3,73.1,70.1,100,89,67,30.02,29.78,7,1,15,0.00
2013-8-6,90.6,79.8,70.8,77.6,74.3,70.2,100,84,63,29.83,29.73,10,2,18,0.25
2013-8-7,87.5,79.1,71.0,77.9,73.5,67.4,100,84,68,29.90,29.72,15,2,29,1.32
2013-8-8,75.8,72.3,69.0,68.8,66.6,64.0,89,82,73,29.97,29.81,15,2,16,0.01
2013-8-9,75.0,72.0,67.4,70.7,66.9,65.2,95,84,73,30.08,29.94,6,1,10,0.01
2013-8-10,85.8,74.6,65.5,68.5,64.7,60.6,100,74,49,30.16,30.05,10,1,18,0.01
2013-8-11,87.1,74.0,61.1,70.5,65.7,59.2,94,77,54,30.09,29.97,7,1,13,0.00
2013-8-12,84.2,75.2,67.8,71.9,69.8,66.6,100,84,61,30.00,29.91,22,2,30,0.54
2013-8-13,81.5,73.7,68.4,69.5,63.2,57.1,94,72,45,30.09,29.98,17,2,21,0.00
2013-8-14,80.8,70.0,62.1,63.0,60.0,56.3,91,72,48,30.17,30.06,8,1,18,0.00
2013-8-15,78.1,67.9,62.0,62.5,58.9,55.9,86,73,55,30.10,29.98,8,1,14,0.02
2013-8-16,78.8,68.8,61.1,60.6,58.2,56.7,86,70,51,30.14,30.05,9,1,20,0.00
2013-8-17,80.7,67.7,55.3,60.6,57.4,54.4,100,73,44,30.18,30.08,9,1,15,0.00
2013-8-18,84.5,69.9,57.4,65.0,60.4,56.0,96,75,48,30.15,30.05,7,1,15,0.00
2013-8-19,81.9,76.1,72.7,67.5,66.6,65.2,78,73,60,30.00,29.96,3,0,10,0.00
2013-8-20,90.2,78.5,68.3,69.8,67.2,64.1,88,70,49,30.03,29.94,10,2,16,0.00
2013-8-21,92.1,80.0,69.4,71.7,68.8,64.0,85,70,50,30.03,29.95,8,2,20,0.00
2013-8-22,93.0,81.2,70.7,73.0,70.5,67.6,90,71,49,30.06,29.96,6,1,12,0.00
2013-8-23,93.7,81.7,70.1,73.9,70.3,67.8,96,71,44,30.04,29.95,9,1,18,0.00
2013-8-24,92.6,82.0,72.1,75.2,71.8,69.4,92,73,51,30.08,29.99,9,2,20,0.00
2013-8-25,94.8,82.2,71.2,76.0,71.9,68.7,92,73,49,30.16,30.06,8,1,20,0.00
2013-8-26,96.1,84.2,74.5,74.0,72.0,70.2,87,69,47,30.11,30.00,10,2,18,0.00
2013-8-27,95.3,83.4,72.9,72.0,68.9,64.7,86,64,40,30.02,29.92,9,2,22,0.00
2013-8-28,95.1,82.8,71.7,73.6,70.5,66.9,89,68,47,30.00,29.94,6,1,15,0.00
2013-8-29,98.0,85.5,75.1,75.0,72.6,69.5,87,67,41,29.98,29.88,8,2,19,0.00
2013-8-30,82.2,80.8,79.2,73.9,72.0,71.3,78,74,70,29.89,29.88,3,0,7,0.00
2013-8-31,89.4,73.3,59.1,64.0,59.8,56.8,93,67,38,30.14,30.03,7,0,14,0.00
2013-9-3,87.7,87.6,87.6,61.1,60.0,58.9,41,40,38,30.09,30.09,1,1,6,0.00
2013-9-4,85.1,76.4,68.4,64.1,62.8,60.3,83,64,45,30.11,30.05,3,0,8,0.00
2013-9-5,90.5,76.1,61.1,66.2,62.8,59.3,95,67,38,30.17,30.07,8,1,13,0.00
2013-9-6,91.9,78.7,67.0,67.9,65.1,62.0,86,65,43,30.10,29.94,10,2,18,0.00
2013-9-7,98.9,83.6,71.4,71.8,68.1,64.4,80,62,40,29.95,29.83,8,2,20,0.00
2013-9-8,103.8,88.8,76.6,71.5,69.1,67.4,74,55,33,29.85,29.74,7,1,20,0.00
2013-9-9,97.8,85.8,76.1,69.0,66.2,62.0,72,54,33,29.89,29.80,10,2,28,0.00
2013-9-10,95.6,84.1,74.3,69.8,66.5,64.3,73,57,39,30.02,29.89,13,3,24,0.00
2013-9-11,97.6,83.1,71.2,67.0,64.0,60.3,78,55,31,30.08,29.97,8,1,16,0.00
2013-9-12,85.7,78.0,72.4,71.3,65.4,48.0,92,67,40,30.10,30.00,16,5,24,0.00
2013-9-13,77.9,67.7,57.9,53.1,50.1,48.0,75,55,37,30.15,30.03,16,3,26,0.00
2013-9-14,79.9,66.6,52.6,54.8,51.3,47.7,84,60,39,30.09,29.93,10,3,20,0.00
2013-9-15,87.9,73.2,65.4,68.9,61.5,54.3,88,68,50,30.11,29.91,21,5,29,0.04
2013-9-16,65.2,61.0,59.4,62.1,59.0,57.7,97,93,87,30.23,30.09,14,3,26,0.33
2013-9-17,72.2,65.9,61.8,69.3,64.6,60.0,100,96,87,30.18,29.95,10,2,20,0.91
2013-9-18,90.2,77.0,67.9,73.7,69.8,66.7,100,80,56,29.96,29.77,15,4,26,0.00
2013-9-19,93.7,78.4,67.0,73.1,69.1,66.5,100,76,44,29.88,29.68,13,4,32,1.75
2013-9-20,70.2,63.2,55.0,67.0,55.0,50.3,100,76,51,30.03,29.86,16,3,24,0.00
2013-9-21,78.9,61.7,48.5,53.2,50.2,46.6,100,70,36,30.05,29.91,6,0,11,0.00
2013-9-22,78.8,63.3,50.5,55.9,51.3,48.0,92,68,40,29.99,29.84,10,2,18,0.00
2013-9-23,78.9,65.2,53.2,56.7,54.1,50.7,92,70,43,29.92,29.76,15,4,26,0.00
2013-9-24,70.1,65.0,60.6,61.1,58.4,56.2,93,79,69,29.83,29.74,9,1,18,0.00
2013-9-25,80.9,66.9,56.8,65.4,61.1,56.8,100,83,56,29.88,29.80,8,1,15,0.00
2013-9-26,87.1,72.7,61.0,64.9,61.6,58.7,94,71,42,29.89,29.81,14,4,26,0.00
2013-9-27,88.2,75.5,65.8,66.5,63.4,61.5,86,68,43,29.93,29.82,14,4,24,0.00
2013-9-28,72.3,64.3,53.0,67.1,60.1,52.9,100,87,71,30.07,29.77,12,3,21,0.60
2013-9-29,76.0,59.8,46.0,60.8,51.6,46.0,100,79,41,30.12,29.95,6,0,10,0.01
2013-9-30,79.7,63.6,48.7,62.5,56.2,48.1,100,79,55,29.95,29.80,8,2,19,0.00
2013-10-1,84.2,70.0,57.4,68.9,63.7,55.3,100,82,56,29.94,29.83,8,1,16,0.00
2013-10-2,84.5,72.1,62.7,72.8,67.3,61.4,100,86,61,29.98,29.84,8,1,16,0.00
2013-10-3,86.2,74.8,65.0,73.9,68.8,62.3,95,83,61,29.85,29.69,16,5,34,0.00
2013-10-4,88.0,76.3,66.1,73.0,68.9,64.8,96,79,53,29.86,29.68,17,5,29,0.38
2013-10-5,66.0,54.5,47.6,64.8,42.9,37.4,96,66,46,30.02,29.85,5,1,15,0.01
2013-10-6,63.4,51.6,42.6,46.7,41.8,36.2,87,70,53,30.02,29.86,8,2,22,0.00
2013-10-7,75.1,56.9,42.8,48.6,44.8,38.7,91,67,38,30.16,30.01,3,0,8,0.00
2013-10-8,76.9,61.5,49.0,52.6,48.4,44.4,85,65,36,30.11,30.01,14,3,24,0.00
2013-10-9,78.2,63.5,51.3,53.0,49.9,47.0,86,64,38,30.09,30.00,12,3,34,0.00
2013-10-10,79.3,63.8,48.6,60.3,53.4,47.1,95,71,44,30.06,29.85,12,3,22,0.00
2013-10-11,76.1,66.7,56.7,66.3,60.6,53.6,94,81,70,29.86,29.74,17,4,30,0.26
2013-10-12,69.4,58.8,47.4,59.2,46.7,41.3,96,67,37,30.25,29.82,15,4,22,0.03
2013-10-13,71.4,57.2,44.9,44.4,40.6,37.5,90,58,32,30.41,30.25,13,2,22,0.00
2013-10-14,69.4,59.7,52.7,60.2,48.2,37.4,92,67,48,30.30,29.86,17,6,30,0.07
2013-10-15,62.0,54.8,45.3,59.5,47.0,39.4,97,76,51,30.08,29.86,13,1,29,0.10
2013-10-16,60.7,50.7,42.8,45.8,41.7,38.3,85,72,52,30.13,30.00,6,1,16,0.01
2013-10-17,67.9,53.5,42.4,47.5,43.0,36.8,94,70,36,30.03,29.90,6,1,15,0.01
2013-10-18,48.0,40.5,36.3,41.5,37.3,35.2,96,89,70,30.15,30.03,14,1,17,0.22
2013-10-19,62.8,46.3,33.5,42.6,37.8,32.5,100,76,41,30.14,29.92,5,1,12,0.00
2013-10-20,71.2,57.1,46.3,48.0,43.7,39.8,79,63,39,29.93,29.79,7,2,16,0.00
2013-10-21,56.4,48.1,41.4,45.7,36.6,31.4,82,65,43,30.13,29.93,15,4,27,0.00
2013-10-22,61.6,50.8,40.6,47.2,40.1,34.8,80,67,48,30.12,29.93,17,4,27,0.00
2013-10-23,52.5,43.2,33.1,38.6,34.8,31.3,95,74,52,30.20,30.07,6,1,13,0.00
2013-10-24,50.7,42.1,30.1,38.2,31.8,26.5,92,69,40,30.48,30.19,18,5,26,0.00
2013-10-25,57.7,42.9,27.9,34.7,28.7,26.0,95,62,31,30.52,30.19,10,2,20,0.00
2013-10-26,60.8,50.7,39.0,44.8,37.6,33.0,85,63,37,30.19,30.11,14,2,26,0.00
2013-10-27,64.8,46.3,28.7,38.2,32.9,27.5,100,64,32,30.19,29.97,9,1,16,0.00
2013-10-28,68.2,51.0,36.7,55.1,44.7,32.6,93,79,61,30.16,30.02,8,2,16,0.00
2013-10-29,65.9,57.8,51.1,65.9,57.3,48.9,100,98,86,30.14,29.93,8,1,14,1.13
2013-10-30,68.7,65.9,62.3,67.8,65.3,62.3,100,98,84,29.96,29.69,16,4,24,1.98
2013-10-31,62.9,51.2,46.6,62.8,50.0,44.3,100,96,83,29.70,29.54,12,2,21,1.25
2013-11-1,60.2,50.4,42.2,45.4,41.9,38.8,92,74,46,30.00,29.66,8,1,18,0.01
2013-11-2,56.5,46.0,38.0,40.8,37.5,34.1,91,74,44,30.22,30.00,10,1,26,0.00
2013-11-3,60.4,48.5,34.7,42.4,37.9,32.6,94,69,44,30.20,29.93,18,6,40,0.00
2013-11-4,59.7,55.6,49.4,52.9,48.3,42.2,87,77,64,30.11,29.90,17,4,28,0.16
2013-11-5,60.6,56.9,48.2,60.6,56.0,46.9,100,97,87,30.11,29.85,11,4,22,0.72
2013-11-6,47.6,39.1,32.8,46.5,36.5,31.3,100,91,72,30.38,29.92,11,2,19,0.17
2013-11-7,56.4,41.3,29.3,40.1,33.9,28.6,100,78,43,30.45,30.37,8,1,20,0.01
2013-11-8,65.1,50.6,32.6,40.7,35.7,29.2,94,60,33,30.37,29.92,19,6,35,0.00
2013-11-9,65.8,53.2,43.7,42.8,38.0,33.7,82,59,31,30.32,30.00,15,2,20,0.00
2013-11-10,60.2,51.0,40.9,40.1,35.2,30.4,69,56,36,30.44,30.23,11,3,16,0.00
2013-11-11,62.7,47.2,27.6,52.8,39.2,17.2,92,74,59,30.67,30.18,27,9,42,0.00
2013-11-12,35.4,25.0,17.9,17.5,14.6,12.1,84,66,39,30.93,30.67,22,6,30,0.00
2013-11-13,49.8,35.1,20.1,25.3,18.6,14.3,84,54,27,30.77,30.24,12,5,21,0.00
2013-11-14,55.1,45.3,35.1,31.3,28.6,25.1,68,53,36,30.24,30.00,12,6,29,0.00
2013-11-15,59.6,50.5,43.2,46.8,40.3,30.6,87,68,55,30.01,29.75,14,5,24,0.00
2013-11-16,69.4,62.8,50.5,61.6,57.2,46.8,91,82,70,29.76,29.41,21,11,37,0.00
2013-11-17,67.6,60.2,45.9,62.2,41.7,18.8,85,55,18,30.08,29.32,18,6,34,0.00
2013-11-18,59.1,45.4,36.2,36.8,31.3,25.0,89,61,31,30.32,30.08,4,1,11,0.00
2013-11-19,61.2,48.7,36.9,31.4,29.1,27.4,70,49,29,30.29,30.01,19,7,32,0.00
2013-11-20,51.2,46.6,40.0,41.9,35.0,22.2,90,66,33,30.02,29.88,18,6,30,0.08
2013-11-21,51.3,42.1,27.9,47.9,38.7,25.6,95,88,71,30.47,29.98,18,6,29,0.13
2013-11-22,29.5,26.6,23.2,25.8,23.1,19.4,92,87,83,30.70,30.46,24,8,32,0.00
2013-11-23,27.8,23.2,15.7,19.9,12.9,5.6,86,65,40,30.87,30.68,24,9,33,0.00
2013-11-24,27.3,20.6,11.9,16.0,10.6,6.5,81,65,50,30.85,30.43,9,4,16,0.00
2013-11-25,37.8,31.6,27.4,24.4,20.5,15.7,83,64,52,30.43,30.24,8,2,15,0.00
2013-11-26,37.4,29.5,21.6,27.1,20.9,10.7,91,71,44,30.48,30.23,32,8,45,0.00
2013-11-27,34.4,24.3,14.5,15.7,12.2,9.5,81,61,39,30.52,30.26,10,2,19,0.00
2013-11-28,41.6,32.7,26.5,25.7,20.8,15.5,73,61,52,30.55,30.24,17,4,21,0.00
2013-11-29,53.3,36.1,24.2,32.6,25.2,18.9,81,66,44,30.56,30.31,14,3,18,0.00
2013-11-30,56.4,42.8,33.6,40.0,33.8,24.9,95,71,54,30.31,30.11,10,2,19,0.00
2013-12-1,59.2,42.7,29.4,41.6,36.0,28.7,100,79,49,30.16,29.92,4,0,10,0.00
2013-12-2,51.9,43.5,35.9,45.6,40.6,34.9,100,90,78,29.92,29.64,9,2,16,0.00
2013-12-3,59.6,47.7,41.6,48.3,44.2,40.8,100,89,63,29.64,29.55,8,2,19,0.00
2013-12-4,46.1,34.6,23.1,45.3,31.7,14.7,100,89,70,30.10,29.52,7,2,16,0.01
2013-12-5,23.0,17.9,15.5,15.5,9.7,6.6,88,70,64,30.49,30.10,22,6,26,0.00
2013-12-6,17.6,14.3,10.2,7.3,2.2,-0.8,68,58,48,30.77,30.48,24,12,29,0.00
2013-12-7,20.9,13.5,4.8,6.7,2.9,-0.3,80,63,47,30.85,30.48,15,7,21,0.00
2013-12-8,23.4,20.7,18.4,21.4,15.8,6.6,93,82,57,30.48,30.08,14,3,20,0.00
2013-12-9,19.8,12.5,9.4,17.4,6.6,2.8,92,77,62,30.53,30.27,8,1,15,0.00
2013-12-10,39.7,23.8,11.3,20.3,13.3,4.9,79,65,43,30.47,30.30,12,3,15,0.00
2013-12-11,26.7,20.9,11.3,20.4,11.6,4.3,86,68,44,30.73,30.32,28,6,36,0.00
2013-12-12,46.5,29.1,11.4,25.0,15.7,5.3,80,59,37,30.71,30.26,9,4,17,0.00
2013-12-13,37.1,33.7,27.8,34.9,31.1,23.7,97,90,80,30.25,29.91,8,3,15,0.07
2013-12-14,35.2,26.6,19.7,34.5,23.9,17.1,97,89,80,30.31,29.94,20,5,34,0.02
2013-12-15,49.7,34.7,18.0,34.2,26.0,16.0,93,72,52,30.31,30.03,7,2,16,0.00
2013-12-16,60.9,42.9,28.7,35.4,29.5,24.0,85,61,34,30.20,30.01,15,2,16,0.00
2013-12-17,47.2,35.5,26.1,32.8,26.4,22.4,94,71,43,30.35,30.19,8,1,21,0.00
2013-12-18,63.3,47.7,29.1,40.1,32.6,23.1,78,57,38,30.29,29.82,13,6,29,0.00
2013-12-19,57.2,54.5,48.7,52.7,47.7,38.8,86,78,58,29.82,29.65,11,4,22,0.00
2013-12-20,48.4,25.5,20.3,43.2,23.2,17.9,95,91,82,29.99,29.69,12,2,21,0.00
2013-12-21,28.1,24.7,21.1,26.6,22.6,18.3,95,91,88,29.97,29.69,13,4,20,0.00
2013-12-22,25.2,21.0,12.5,23.9,18.9,10.2,95,91,85,30.48,29.80,8,1,16,0.00
2013-12-23,15.1,9.9,5.3,10.1,5.5,1.6,92,82,73,30.75,30.46,13,1,18,0.00
2013-12-24,30.8,18.0,2.6,28.5,14.0,-0.1,92,84,72,30.73,30.32,16,5,25,0.00
2013-12-25,41.1,32.3,27.7,31.0,27.7,24.7,93,84,66,30.42,30.34,8,1,10,0.09
2013-12-26,48.1,34.8,22.4,33.1,27.9,20.7,95,77,50,30.41,30.25,14,2,21,0.17
2013-12-27,55.4,39.1,25.2,37.1,31.2,23.7,96,75,43,30.41,30.24,9,1,19,0.01
2013-12-28,56.9,44.1,34.4,35.1,32.1,28.5,83,64,36,30.24,29.93,13,3,24,0.00
2013-12-29,39.6,18.5,11.3,32.7,8.9,-3.1,82,66,45,30.43,29.98,26,8,36,0.00
2013-12-30,30.3,19.4,8.7,18.1,5.9,-3.1,74,56,42,30.43,30.28,13,3,21,0.00
2013-12-31,51.1,34.4,16.9,29.6,23.0,14.3,91,65,42,30.43,30.12,15,4,28,0.00
2014-1-1,38.9,22.4,8.8,25.9,16.7,4.7,88,79,57,30.40,30.07,30,9,34,0.00
2014-1-2,18.3,8.5,1.0,6.0,1.6,-2.9,84,74,57,30.62,30.40,18,4,24,0.00